Volver al catálogo

STARLINK-1068

ActivoComunicacionesVLEO
NORAD 44772·PAYLOAD·🇺🇸 United States

Lanzado Nov 11, 2019 desde Cape Canaveral Space Force Station

Loading…

Próximos Pases (próximas 24 horas)

TLE

ActualizadoSource: CelesTrak SupGP

Época: Sep 14, 2026, 13:41 UTC

1 44772C 19074BM  26257.57062500  .00432110  00000+0  58395-3 0  2572
2 44772  53.0306 314.8879 0003911  45.4930 324.7056 16.05450782    18

Sigue STARLINK-1068 en tiempo real con AllMySat

Download on the App Store